Flag for Australia Weather past 2 weeks in Canberra, Australian Capital Territory, Australia

Now
79 °F

Scattered showers. Passing clouds.


Feels Like: 79 °F
Forecast: 54 / 83 °F
Wind: 9 mph from Northwest

Location: Canberra Airport

Current Time: Oct 23, 2014 at 12:53:25 PM

Latest Report: Oct 23, 2014 at 12:00 PM


Visibility: N/A

Pressure: 30.09 "Hg

Humidity: 45%

Dew point: 55 °F

Location of CanberraLocation

Historic Weather in Canberra — Graph

°F

Canberra temperature yesterday

Maximum temperature yesterday: 75 °F (at 2:30 PM)
Minimum temperature yesterday: 50 °F (at 1:03 AM)
Average temperature yesterday: 61 °F

Past Weeks' High & Low Weather Summary

 TemperatureHumidityPressure
High81 °F (Oct 12, 3:00 PM)100% (Oct 9, 5:00 AM)30.48 "Hg (Oct 9, 5:00 AM)
Low32 °F (Oct 16, 6:30 AM)18% (Oct 11, 3:30 PM)29.65 "Hg (Oct 13, 5:00 PM)
Average55 °F69%30.12 "Hg
* Reported Oct 8 11:00 AM — Oct 23 11:30 AM, Canberra, Weather by CustomWeather, © 2014

Note: Actual official high and low records may vary slightly from our data, if they occured in-between our weather recording intervals... More about our weather records

Advertising

Canberra weather history for previous 24 hours

 ConditionsComfort  
Time TempWeatherWind HumidityBarometerVisibility
11:30 AM
Oct 23
77 °FPassing clouds.8 mph42%30.12 "HgN/A
11:00 AM75 °FSunny.7 mph50%30.12 "Hg10 mi
10:30 AM73 °FScattered clouds.8 mph57%30.12 "HgN/A
10:00 AM70 °FSunny.7 mph64%30.12 "Hg10 mi
9:30 AM68 °FScattered clouds.5 mph60%30.12 "HgN/A
9:00 AM64 °FSunny.5 mph68%30.12 "Hg10 mi
8:30 AM61 °FSunny.1 mph83%30.12 "Hg10 mi
8:00 AM54 °FSunny.3 mph94%30.12 "Hg10 mi
7:30 AM52 °FPartly sunny.6 mph94%30.12 "HgN/A
7:00 AM52 °FSunny.1 mph100%30.12 "Hg10 mi
6:30 AM50 °FSunny.No wind94%30.12 "Hg10 mi
6:00 AM48 °FClear.No wind94%30.09 "Hg10 mi
5:30 AM48 °FClear.5 mph94%30.09 "Hg10 mi
5:00 AM50 °FClear.No wind100%30.09 "Hg10 mi
4:30 AM50 °FClear.No wind94%30.09 "Hg10 mi
4:00 AM50 °FClear.1 mph94%30.09 "HgN/A
3:30 AM50 °FClear.6 mph94%30.09 "HgN/A
3:00 AM50 °FClear.2 mph88%30.09 "HgN/A
2:30 AM50 °FClear.2 mph94%30.09 "HgN/A
2:00 AM50 °FClear.No wind88%30.09 "HgN/A
1:30 AM54 °FClear.No wind88%30.09 "HgN/A
1:00 AM52 °FClear.No wind88%30.12 "HgN/A
12:00 AM55 °FClear.3 mph82%30.12 "HgN/A
11:30 PM
Oct 22
54 °FClear.6 mph82%30.12 "HgN/A
11:00 PM54 °FClear.6 mph82%30.12 "HgN/A
10:30 PM57 °FClear.3 mph77%30.12 "HgN/A
10:00 PM63 °FClear.1 mph64%30.12 "HgN/A
9:30 PM64 °FClear.7 mph60%30.12 "HgN/A
9:00 PM66 °FClear.8 mph60%30.09 "HgN/A
8:30 PM66 °FClear.8 mph60%30.09 "Hg10 mi
8:00 PM66 °FClear.8 mph60%30.09 "Hg10 mi
7:30 PM68 °FClear.8 mph56%30.09 "Hg10 mi
7:00 PM72 °FSunny.10 mph53%30.09 "Hg10 mi
6:30 PM73 °FSunny.13 mph53%30.09 "Hg10 mi
6:00 PM73 °FPassing clouds.14 mph53%30.09 "HgN/A
5:30 PM75 °FPassing clouds.14 mph54%30.09 "HgN/A
5:00 PM75 °FPassing clouds.14 mph50%30.09 "HgN/A
4:30 PM75 °FPassing clouds.15 mph54%30.09 "HgN/A
4:00 PM75 °FPassing clouds.13 mph50%30.09 "HgN/A
3:30 PM75 °FPassing clouds.14 mph50%30.12 "HgN/A
3:00 PM75 °FPassing clouds.13 mph54%30.12 "HgN/A
2:30 PM75 °FPassing clouds.15 mph54%30.12 "HgN/A
2:00 PM73 °FPassing clouds.15 mph53%30.15 "HgN/A
1:30 PM72 °FPassing clouds.13 mph61%30.15 "HgN/A
1:00 PM70 °FPassing clouds.8 mph60%30.18 "HgN/A
12:30 PM68 °FPassing clouds.7 mph64%30.21 "HgN/A
12:00 PM64 °FPassing clouds.7 mph60%30.24 "HgN/A
Weather by CustomWeather, © 2014

See weather overviewHow to use our weather pages